Bentonville, AR

7:57 AM CDT on May 25, 2017 (GMT -0500)
Bentonville Municipal-Thaden

Weather History for KVBT - September, 2011

Change the Weather History Date:

Monday, September 5, 2011

  Actual Average Record
Temperature  
Mean Temperature 64 °F -  
Max Temperature 75 °F 85 °F 101 °F (1954)
Min Temperature 53 °F 61 °F 42 °F (1974)
Degree Days  
Heating Degree Days 1    
Growing Degree Days 14 (Base 50)    
Moisture  
Dew Point 45 °F    
Average Humidity 50    
Maximum Humidity 77    
Minimum Humidity 29    
Precipitation  
Precipitation 0.00 in - - ()
Sea Level Pressure  
Sea Level Pressure 30.05 in    
Wind  
Wind Speed 11 mph (NNE)    
Max Wind Speed 18 mph    
Max Gust Speed 26 mph    
Visibility 10 miles    
Events      
Averages and records for this station are not official NWS values.
T = Trace of Precipitation, MM = Missing Value Source: NWS Daily Summary

Daily Weather History Graph

Daily Weather History Graph

Search for Another Location

Airport or City:

Trip Planner

Search our weather history database for the weather conditions in past years. The results will help you decide how hot, cold, wet, or windy it might be!

Date:

Astronomy

Sep. 05, 2011 Rise Set
Actual Time 6:51 AM CDT 7:39 PM CDT
Civil Twilight 6:25 AM CDT 8:05 PM CDT
Nautical Twilight 5:54 AM CDT 8:36 PM CDT
Astronomical Twilight 5:22 AM CDT 9:08 PM CDT
Moon 3:17 PM CDT (9/5) 12:16 AM CDT (9/5)
Length of Visible Light 13h 40m
Length of Day
12h 48m
First Quarter, 61% of the Moon is Illuminated
Sep 5
First Quarter
Sep 12
Full
Sep 20
Last Quarter
Sep 27
New
Oct 3
First Quarter

Hourly Weather History & Observations

Time (CDT) Temp. Dew Point Humidity Pressure Visibility Wind Dir Wind Speed Gust Speed Precip Events Conditions
12:15 AM 62.6 °F 44.6 °F 52% 30.05 in 10.0 mi NNE 12.7 mph 17.3 mph N/A   Clear
12:35 AM 62.6 °F 44.6 °F 52% 30.05 in 10.0 mi NNE 9.2 mph 16.1 mph N/A   Clear
12:55 AM 62.6 °F 44.6 °F 52% 30.05 in 10.0 mi NNE 9.2 mph 16.1 mph N/A   Clear
1:15 AM 62.6 °F 44.6 °F 52% 30.05 in 10.0 mi NNE 10.4 mph - N/A   Clear
1:35 AM 60.8 °F 44.6 °F 55% 30.05 in 10.0 mi NNE 10.4 mph - N/A   Clear
1:55 AM 60.8 °F 44.6 °F 55% 30.05 in 10.0 mi NNE 9.2 mph - N/A   Clear
2:15 AM 59.0 °F 44.6 °F 59% 30.04 in 10.0 mi NNE 8.1 mph - N/A   Clear
2:55 AM 57.2 °F 44.6 °F 63% 30.04 in 10.0 mi NNE 8.1 mph - N/A   Clear
3:15 AM 57.2 °F 46.4 °F 67% 30.05 in 10.0 mi NNE 8.1 mph - N/A   Clear
3:55 AM 55.4 °F 44.6 °F 67% 30.04 in 10.0 mi NNE 8.1 mph - N/A   Clear
4:15 AM 55.4 °F 46.4 °F 72% 30.03 in 10.0 mi North 8.1 mph - N/A   Clear
4:35 AM 57.2 °F 46.4 °F 67% 30.03 in 10.0 mi North 9.2 mph - N/A   Clear
4:55 AM 55.4 °F 46.4 °F 72% 30.04 in 10.0 mi NNE 6.9 mph - N/A   Clear
5:35 AM 55.4 °F 46.4 °F 72% 30.04 in 10.0 mi NNE 6.9 mph - N/A   Clear
5:55 AM 53.6 °F 46.4 °F 77% 30.05 in 10.0 mi NNE 8.1 mph - N/A   Clear
6:15 AM 53.6 °F 46.4 °F 77% 30.05 in 10.0 mi NNE 8.1 mph - N/A   Clear
6:35 AM 53.6 °F 46.4 °F 77% 30.05 in 10.0 mi North 9.2 mph - N/A   Clear
6:55 AM 53.6 °F 46.4 °F 77% 30.06 in 10.0 mi NNE 8.1 mph - N/A   Clear
7:15 AM 53.6 °F 46.4 °F 77% 30.06 in 10.0 mi NNE 9.2 mph - N/A   Clear
7:35 AM 55.4 °F 46.4 °F 72% 30.07 in 10.0 mi NNE 10.4 mph - N/A   Clear
7:55 AM 55.4 °F 46.4 °F 72% 30.07 in 10.0 mi NNE 10.4 mph - N/A   Clear
8:15 AM 57.2 °F 48.2 °F 72% 30.07 in 10.0 mi NNE 11.5 mph - N/A   Clear
8:35 AM 57.2 °F 48.2 °F 72% 30.07 in 10.0 mi NNE 12.7 mph 19.6 mph N/A   Clear
8:55 AM 59.0 °F 48.2 °F 67% 30.07 in 10.0 mi NNE 15.0 mph - N/A   Clear
9:15 AM 60.8 °F 48.2 °F 63% 30.08 in 10.0 mi NNE 13.8 mph - N/A   Clear
9:35 AM 62.6 °F 48.2 °F 59% 30.08 in 10.0 mi North 11.5 mph 17.3 mph N/A   Clear
10:15 AM 64.4 °F 48.2 °F 56% 30.09 in 10.0 mi NE 17.3 mph 23.0 mph N/A   Partly Cloudy
10:35 AM 66.2 °F 46.4 °F 49% 30.08 in 10.0 mi NNE 18.4 mph 24.2 mph N/A   Partly Cloudy
10:55 AM 68.0 °F 46.4 °F 46% 30.09 in 10.0 mi NNE 16.1 mph 23.0 mph N/A   Clear
11:15 AM 68.0 °F 44.6 °F 43% 30.09 in 10.0 mi NNE 16.1 mph 23.0 mph N/A   Clear
11:35 AM 69.8 °F 44.6 °F 40% 30.09 in 10.0 mi NNE 16.1 mph 26.5 mph N/A   Clear
11:55 AM 69.8 °F 44.6 °F 40% 30.09 in 10.0 mi NNE 16.1 mph 24.2 mph N/A   Clear
12:15 PM 71.6 °F 44.6 °F 38% 30.08 in 10.0 mi North 17.3 mph 21.9 mph N/A   Clear
12:35 PM 71.6 °F 44.6 °F 38% 30.07 in 10.0 mi NNE 11.5 mph 21.9 mph N/A   Clear
12:55 PM 73.4 °F 44.6 °F 36% 30.06 in 10.0 mi NNE 10.4 mph 21.9 mph N/A   Clear
1:15 PM 73.4 °F 42.8 °F 33% 30.06 in 10.0 mi North 11.5 mph 16.1 mph N/A   Clear
1:35 PM 73.4 °F 42.8 °F 33% 30.05 in 10.0 mi NNE 13.8 mph 21.9 mph N/A   Clear
1:55 PM 73.4 °F 42.8 °F 33% 30.05 in 10.0 mi NNE 11.5 mph 20.7 mph N/A   Clear
2:15 PM 75.2 °F 42.8 °F 31% 30.04 in 10.0 mi North 15.0 mph 23.0 mph N/A   Clear
2:35 PM 75.2 °F 41.0 °F 29% 30.04 in 10.0 mi NNE 11.5 mph 21.9 mph N/A   Clear
3:15 PM 75.2 °F 41.0 °F 29% 30.02 in 10.0 mi NNE 15.0 mph 25.3 mph N/A   Clear
3:35 PM 75.2 °F 42.8 °F 31% 30.02 in 10.0 mi North 12.7 mph 24.2 mph N/A   Clear
3:55 PM 75.2 °F 42.8 °F 31% 30.01 in 10.0 mi NNE 12.7 mph 19.6 mph N/A   Clear
4:15 PM 75.2 °F 42.8 °F 31% 30.01 in 10.0 mi North 16.1 mph 20.7 mph N/A   Partly Cloudy
4:35 PM 75.2 °F 42.8 °F 31% 30.00 in 10.0 mi North 17.3 mph 20.7 mph N/A   Clear
4:55 PM 75.2 °F 42.8 °F 31% 30.00 in 10.0 mi NNE 13.8 mph 19.6 mph N/A   Clear
5:15 PM 75.2 °F 42.8 °F 31% 30.01 in 10.0 mi NNE 15.0 mph 19.6 mph N/A   Clear
5:35 PM 75.2 °F 42.8 °F 31% 30.01 in 10.0 mi NNE 13.8 mph - N/A   Clear
5:55 PM 73.4 °F 42.8 °F 33% 30.01 in 10.0 mi North 13.8 mph 19.6 mph N/A   Clear
6:15 PM 73.4 °F 42.8 °F 33% 30.01 in 10.0 mi North 12.7 mph 20.7 mph N/A   Clear
6:35 PM 73.4 °F 42.8 °F 33% 30.01 in 10.0 mi NNE 11.5 mph 17.3 mph N/A   Clear
6:55 PM 71.6 °F 41.0 °F 33% 30.01 in 10.0 mi NNE 13.8 mph 19.6 mph N/A   Clear
7:15 PM 71.6 °F 42.8 °F 35% 30.01 in 10.0 mi NNE 12.7 mph - N/A   Clear
7:35 PM 69.8 °F 42.8 °F 38% 30.01 in 10.0 mi NNE 11.5 mph - N/A   Clear
7:55 PM 68.0 °F 42.8 °F 40% 30.02 in 10.0 mi NNE 9.2 mph - N/A   Clear
8:15 PM 66.2 °F 42.8 °F 43% 30.02 in 10.0 mi NNE 6.9 mph - N/A   Clear
8:35 PM 64.4 °F 44.6 °F 49% 30.03 in 10.0 mi North 6.9 mph - N/A   Clear
8:55 PM 64.4 °F 42.8 °F 45% 30.03 in 10.0 mi NNE 8.1 mph - N/A   Clear
9:15 PM 64.4 °F 44.6 °F 49% 30.04 in 10.0 mi NNE 6.9 mph - N/A   Clear
9:35 PM 62.6 °F 44.6 °F 52% 30.05 in 10.0 mi NE 5.8 mph - N/A   Clear
9:55 PM 62.6 °F 44.6 °F 52% 30.06 in 10.0 mi NE 5.8 mph - N/A   Clear
10:15 PM 60.8 °F 44.6 °F 55% 30.06 in 10.0 mi NE 6.9 mph - N/A   Clear
10:35 PM 60.8 °F 44.6 °F 55% 30.06 in 10.0 mi NE 6.9 mph - N/A   Clear
10:55 PM 60.8 °F 44.6 °F 55% 30.07 in 10.0 mi NE 6.9 mph - N/A   Clear
11:15 PM 59.0 °F 44.6 °F 59% 30.07 in 10.0 mi NE 5.8 mph - N/A   Clear
11:35 PM 59.0 °F 44.6 °F 59% 30.07 in 10.0 mi NE 6.9 mph - N/A   Clear
11:55 PM 57.2 °F 44.6 °F 63% 30.07 in 10.0 mi NNE 5.8 mph - N/A   Clear